FENGYUN 1C DEB

Satellite information

Favourite Embed

Satellite Type and Status

DEBRISIN ORBIT

Key statistics

Satellite FENGYUN 1C DEB at a glance.

Uptime

9619

Days in orbit

Revolutions

≈ 14.2

Per day

Orbit

SSO

Sun Synchronous Orbit

Inclination

98.6

Latest

Satellite identification and parameters

Extended collection of information and parameters for FENGYUN 1C DEB.

Object identification

Identified? True

Debris? True

Object name: FENGYUN 1C DEB

International designator: 1999-025PT

Object number (NORAD): 30066

Object ID (CCSDS): 30066

Country: PEOPLES REPUBLIC OF CHINA (PRC)

Current information (Y/N): Y

RCS size: SMALL

Orbital parameters

Period: 101.48 minutes

Inclination: 98.6275 deg

SMA: 7206.877 km

Apoapsis: 913.754 km

Periapsis: 743.73 km

RAAN: 244.4701 deg

Eccentricy: 0.01179592

Argument of periapsis: 175.7565 deg

Mean anomaly: 305.9423 deg

Mean motion: 14.18998966 rev/day

Mean motion (dot): 0.00000232 rev/day2

B* drag term: 0.00012280775 1/REarth

Two-line elements (TLE)

Creation date: Sept. 8, 2025, 6:18 p.m.

Reference frame: TEME

Reference center: EARTH

Epoch: Sept. 8, 2025, 1:58 p.m. UTC

TLE line 0: 0 FENGYUN 1C DEB

TLE line 1: 1 30066U 99025PT 25251.58239568 .00000232 00000-0 12281-3 0 9995

TLE line 2: 2 30066 98.6275 244.4701 0117959 175.7565 305.9423 14.18998966964875

Live tracking on map

Real-time ground track for satellite FENGYUN 1C DEB.

In-orbit conjunctions

A list of the most updated potential collisions computed for object FENGYUN 1C DEB.

Target Orbit TCA Probability of collision Miss distance Type
FENGYUN 1C DEB SSO 2025-01-18 12:11:09 0.000229572 163.0 (m) DEBRIS
CZ-4 DEB SSO 2024-09-27 00:52:06 0.0001728515 806.0 (m) DEBRIS
CZ-6A R/B LEO 2024-06-27 17:24:12 0.0003309211 340.0 (m) ROCKET BODY

Associated space launch

Chinese polar orbiting meteorological satellite

FENGYUN 1C DEB was lifted into orbit during the mission ‘Long March 4B | Feng Yun 1C’, on board a Long March 4B space rocket.

The launch took place on May 10, 1999, 1:33 a.m. from Launch Complex 7.

For more information about the launch, click the button.

Launch to space Long March 4B | Feng Yun 1C
Long March 4B | Feng Yun 1C

Agency: N/A

Status: Launch Successful

Launch date: May 10, 1999, 1:33 a.m. UTC

Rocket: Long March 4B

Launch pad: Launch Complex 7

Location: Taiyuan Satellite Launch Center, People's Republic of China

...

Latest news about this satellite

There are no fresh news available about this satellite. Check back as we update our databases every day.


Newsletter sign-up

Weekly statistics, charts and insights to help you stay on top of the space industry.